FW3981 Manvel TX US current weather conditions

sailwx.info

Wind from 139 at 3 knots gusting 8

Air temperature 33.9° C
Dewpoint 22.9° C

Last reported at 2020-Jul-12 00:01 UTC.
Time now 2020-Jul-12 00:33 UTC

Location: N 29°31' W 095°23'.
View on Google Maps.

See reports from other nearby stations

  
Tides and Currents Weather Stations Pressure Air Temp Water Temp Dewpoint Dewpoint Depression Visibility Wind Speed Wind Dir Waves Ship Positions
date/time (UTC)wind fromknots sea level pressurealtimeterstation pressurevisibilityair tempwater tempwave heightnotes
2020-Jul-12 00:01 139 3 gusting 8 33.9
2020-Jul-11 23:45 154 3 gusting 7 34.4
2020-Jul-11 23:31 118 5 gusting 8 34.4
2020-Jul-11 23:16 155 3 gusting 6 35.0
2020-Jul-11 23:00 155 1 gusting 3 36.1
2020-Jul-11 22:46 221 1 gusting 7 35.6
2020-Jul-11 22:31 220 2 gusting 5 36.1
2020-Jul-11 22:15 265 1 gusting 6 36.1
2020-Jul-11 22:00 144 2 gusting 6 36.1
2020-Jul-11 21:47 138 0 gusting 5 35.6
2020-Jul-11 21:31 286 0 gusting 6 35.6
2020-Jul-11 21:15 231 2 gusting 6 35.6
2020-Jul-11 21:00 290 1 gusting 5 35.6
2020-Jul-11 20:46 179 2 gusting 7 35.6
2020-Jul-11 20:30 257 3 gusting 6 35.0
2020-Jul-11 20:16 205 3 gusting 6 35.6
2020-Jul-11 20:00 215 35.0
2020-Jul-11 19:45 243 3 gusting 7 34.4
2020-Jul-11 19:31 333 1 gusting 5 34.4
2020-Jul-11 19:16 347 2 gusting 6 34.4
2020-Jul-11 19:00 241 0 gusting 3 34.4
2020-Jul-11 18:46 051 0 gusting 6 34.4
2020-Jul-11 18:31 292 1 gusting 4 34.4
2020-Jul-11 18:16 245 3 gusting 8 33.9
2020-Jul-11 18:01 142 1 gusting 6 33.3
2020-Jul-11 17:48 143 2 gusting 6 32.8
2020-Jul-11 17:30 285 4 gusting 7 32.8
2020-Jul-11 17:16 200 3 gusting 6 32.8
2020-Jul-11 17:00 272 3 gusting 6 32.8
2020-Jul-11 16:46 243 2 gusting 5 32.2
2020-Jul-11 16:31 263 4 gusting 7 32.2
2020-Jul-11 16:15 206 3 gusting 9 31.7
2020-Jul-11 16:01 235 3 gusting 7 31.1
2020-Jul-11 15:45 192 1 gusting 6 30.6
2020-Jul-11 15:31 210 2 gusting 6 30.0
2020-Jul-11 15:16 221 1 gusting 6 30.6
2020-Jul-11 15:01 288 0 gusting 6 30.0
2020-Jul-11 14:46 191 3 gusting 6 29.4
2020-Jul-11 14:15 293 3 gusting 6 28.9
2020-Jul-11 14:00 269 3 gusting 7 28.3
2020-Jul-11 13:46 293 28.3
2020-Jul-11 13:31 236 2 gusting 4 27.8
2020-Jul-11 13:16 278 0 gusting 2 27.2
2020-Jul-11 13:01 162 26.7
2020-Jul-11 12:45 143 26.1
2020-Jul-11 12:32 146 25.6
2020-Jul-11 12:16 148 25.6
2020-Jul-11 12:01 159 24.4
2020-Jul-11 11:46 159 24.4
2020-Jul-11 11:31 159 24.4
2020-Jul-11 11:15 159 24.4
2020-Jul-11 11:00 159 25.0
2020-Jul-11 10:45 159 25.0
2020-Jul-11 10:30 159 0 gusting 1 25.0
2020-Jul-11 10:17 163 25.0
2020-Jul-11 10:01 163 25.0
2020-Jul-11 09:45 162 25.0
2020-Jul-11 09:31 162 25.0
2020-Jul-11 09:16 162 25.0
2020-Jul-11 09:01 158 25.0
2020-Jul-11 08:45 156 25.0
2020-Jul-11 08:32 210 25.0
2020-Jul-11 08:15 235 25.0
2020-Jul-11 08:00 235 25.0
2020-Jul-11 07:45 235 25.0
2020-Jul-11 07:30 235 25.0
2020-Jul-11 07:16 235 25.0
2020-Jul-11 07:00 235 25.6
2020-Jul-11 06:46 235 25.6
2020-Jul-11 06:31 204 26.1
2020-Jul-11 06:15 155 26.1
2020-Jul-11 06:01 200 0 gusting 2 26.7
2020-Jul-11 05:46 239 0 gusting 4 26.7
2020-Jul-11 05:32 210 1 gusting 3 26.7
2020-Jul-11 05:16 192 2 gusting 6 26.7
2020-Jul-11 05:01 172 2 gusting 5 26.7
2020-Jul-11 04:45 174 2 gusting 5 26.7
2020-Jul-11 04:31 165 1 gusting 4 27.2
2020-Jul-11 04:15 182 2 gusting 5 27.2
2020-Jul-11 04:00 193 3 gusting 5 27.2
2020-Jul-11 03:46 198 3 gusting 6 27.2
2020-Jul-11 03:45 150 3 gusting 6 27.2
2020-Jul-11 03:32 178 1 gusting 5 27.2
2020-Jul-11 03:30 163 2 gusting 5 27.2
2020-Jul-11 03:17 165 2 gusting 5 27.2
2020-Jul-11 03:00 151 3 gusting 6 27.8
2020-Jul-11 02:46 165 2 gusting 3 27.8
2020-Jul-11 02:30 157 27.8
2020-Jul-11 02:15 165 28.3
2020-Jul-11 02:02 207 28.3
2020-Jul-11 01:45 172 1 gusting 3 28.9
2020-Jul-11 01:30 170 1 gusting 6 30.0
2020-Jul-11 01:16 167 5 gusting 8 30.0
2020-Jul-11 01:01 169 5 gusting 10 31.1
2020-Jul-11 00:46 158 5 gusting 11 31.7
2020-Jul-11 00:30 177 6 gusting 12 32.2
2020-Jul-11 00:16 170 6 gusting 9 32.8
2020-Jul-11 00:00 162 6 gusting 10 32.8
2020-Jul-10 23:45 161 8 gusting 13 32.8
2020-Jul-10 23:32 134 7 gusting 11 33.3
2020-Jul-10 23:17 150 6 gusting 12 33.3
2020-Jul-10 23:00 181 7 gusting 13 33.9
2020-Jul-10 22:45 153 6 gusting 13 33.9
2020-Jul-10 22:31 141 6 gusting 14 33.9
2020-Jul-10 22:15 142 8 gusting 11 34.4
2020-Jul-10 21:46 172 7 gusting 12 35.6
2020-Jul-10 21:30 147 4 gusting 8 36.1
2020-Jul-10 21:16 129 2 gusting 6 36.1
2020-Jul-10 21:00 200 2 gusting 3 36.1
2020-Jul-10 20:45 240 2 gusting 6 35.6
2020-Jul-10 20:30 158 5 gusting 10 35.6
2020-Jul-10 20:15 189 0 gusting 5 35.6
2020-Jul-10 20:00 190 3 gusting 6 36.1
2020-Jul-10 19:46 167 35.6
2020-Jul-10 19:31 153 2 gusting 8 35.0
2020-Jul-10 19:15 172 2 gusting 10 33.9
2020-Jul-10 19:02 110 6 gusting 11 34.4
2020-Jul-10 18:45 210 3 gusting 6 35.0
2020-Jul-10 18:31 165 4 gusting 11 34.4
2020-Jul-10 18:30 132 6 gusting 11 34.4
2020-Jul-10 18:16 129 1 gusting 9 33.9
2020-Jul-10 18:00 197 5 gusting 10 33.9
2020-Jul-10 17:46 220 4 gusting 9 33.9
2020-Jul-10 17:30 141 5 gusting 12 33.3
2020-Jul-10 17:16 192 4 gusting 11 33.3
2020-Jul-10 17:00 258 2 gusting 8 33.3
2020-Jul-10 16:45 268 2 gusting 6 32.8
2020-Jul-10 16:30 194 5 gusting 9 32.8
2020-Jul-10 16:16 159 2 gusting 8 32.2
2020-Jul-10 16:00 151 4 gusting 7 32.2
2020-Jul-10 15:45 172 3 gusting 7 31.7
2020-Jul-10 15:31 157 5 gusting 8 31.1
2020-Jul-10 15:15 176 2 gusting 7 30.6
2020-Jul-10 15:01 176 6 gusting 9 31.1
2020-Jul-10 14:46 165 4 gusting 7 30.6
2020-Jul-10 14:30 167 4 gusting 8 30.0
2020-Jul-10 14:16 165 4 gusting 8 29.4
2020-Jul-10 14:00 146 4 gusting 7 29.4
2020-Jul-10 13:45 163 2 gusting 5 28.9
2020-Jul-10 13:30 201 2 gusting 4 27.8
2020-Jul-10 04:30 165 0 gusting 1 25.6
2020-Jul-10 04:15 158 0 gusting 2 25.6
2020-Jul-10 04:00 158 1 gusting 2 25.6
2020-Jul-10 03:47 151 0 gusting 1 25.6
2020-Jul-10 03:30 153 0 gusting 1 25.6
2020-Jul-10 03:15 154 25.6
2020-Jul-10 03:01 159 26.1
2020-Jul-10 03:00 159 26.1
2020-Jul-10 02:46 164 0 gusting 1 26.1
2020-Jul-10 02:30 144 26.7
2020-Jul-10 02:17 158 26.7
2020-Jul-10 02:00 150 0 gusting 2 27.2
2020-Jul-10 01:46 157 0 gusting 1 27.8
2020-Jul-10 01:31 158 2 gusting 5 28.3
2020-Jul-10 01:15 153 4 gusting 6 28.9
2020-Jul-10 01:02 155 4 gusting 7 30.0
2020-Jul-10 01:00 158 5 gusting 7 30.0
2020-Jul-10 00:47 182 5 gusting 8 30.6
2020-Jul-10 00:30 150 6 gusting 10 31.1
2020-Jul-10 00:15 152 7 gusting 11 31.1
2020-Jul-10 00:00 176 6 gusting 11 31.1